Vertical_Velocity
-0 -2 -2 -9 -4 0 -1 -3 -3 -2 1 -0 1 -1 -7 0 -5 -3 2 1 4 4 2 5 -1 1 -2 2 -0 -2 -1 -1 9 -0 0 -0 3 1 0 -3 -2 -2 8 -1 1 -2 4 0 -1
-2 -1 5 1 -2 2 -4 -2 -1 -5 -1 -0 -1 1 -0 2 -0 1 -1 -1 2 2 3 1 3 2 0 2 1 -0 2 1 -2 5 1 -1 -1 4 1 0 0 -2 3 2 1 -2 0 4 1
1 -0 -4 -2 -0 -4 -3 -1 -3 -1 1 -3 1 -1 1 1 1 2 -1 1 -1 3 2 -1 2 2 0 -1 1 -1 1 1 0 -3 4 2 0 -2 2 -2 1 1 -2 3 -1 1 -3 -1 2
9 -3 -2 -0 -3 -5 -3 -1 -1 2 2 1 -1 0 -2 2 -0 2 -0 1 2 0 1 0 -0 2 2 -1 0 2 -2 1 0 -0 0 -2 2 1 -2 3 -4 2 3 -2 3 -2 -0 -1 -4
6 1 0 1 -2 -1 -1 -0 -0 -0 -0 2 2 1 -1 -0 0 2 -1 2 4 0 -1 1 -1 -0 -1 -0 -2 1 1 -1 1 0 -2 -2 0 -1 -1 -1 3 -2 -1 4 -2 1 1 -2 -1
-3 1 0 -1 -1 -1 -0 -1 -1 -0 0 0 -2 -1 0 -0 -0 -1 0 3 -0 2 -0 2 -5 -6 -3 -3 -3 -3 1 -1 -0 2 -1 -1 0 -1 1 1 -1 -0 4 -1 3 -1 -1 1 1
-4 -0 -2 -1 -1 0 -2 -0 -1 -2 0 -2 -0 -2 1 3 -0 -0 2 -0 2 2 3 -0 -0 5 4 -3 1 -1 -2 -4 -2 1 0 0 -2 -0 -0 1 0 0 -2 4 -2 1 2 -2 -0
-0 -3 1 -1 -1 -4 -0 2 0 -1 -2 -2 1 -2 -2 -3 -3 3 -0 1 1 -0 1 0 -3 3 -0 -2 1 4 1 -0 -3 1 -0 0 0 -0 -0 1 -1 -3 1 1 1 -0 4 1 0
1 -1 0 -2 -1 -4 1 -1 -0 2 -1 0 0 -0 -0 0 2 2 0 0 2 1 -2 1 -2 -0 3 -2 -4 -1 2 2 -1 1 2 1 -1 2 -2 -2 3 1 -0 -2 2 2 -3 -1 1
-1 0 -6 -4 -1 -0 -1 -0 -2 0 0 1 1 -1 0 0 2 -1 -1 -2 -1 1 1 -3 1 -1 3 3 -3 -3 2 2 1 -1 -2 2 1 -3 -2 5 -4 5 2 -1 0 -1 -1 1 -1
1 -2 -1 -1 0 -1 -0 1 0 -1 0 -4 -6 -3 -1 1 1 1 2 1 2 -3 2 1 -4 0 -0 4 3 -5 1 2 2 -3 1 0 1 2 -0 -6 2 -0 2 1 1 2 -0 -1 1
-0 0 -0 0 -0 0 -0 0 1 1 0 -0 -0 4 -2 -1 -0 1 1 0 -1 2 -3 3 2 -4 -1 -0 2 -1 -4 1 2 4 -0 -3 1 2 3 1 -1 -5 -0 2 -2 2 4 4 0
1 -0 -0 0 -0 -0 2 -1 -2 -2 -1 -1 1 0 -1 -1 1 3 2 3 0 2 2 1 1 0 -3 -2 1 -0 -0 -2 1 1 1 -2 -2 1 2 -0 -0 3 -0 -1 -2 -0 -1 4 0
-0 0 0 -0 0 0 0 -0 2 1 1 2 1 0 0 -0 -1 2 -1 -1 3 0 1 -2 0 -1 -2 -1 -0 -2 -2 -1 0 2 0 -0 1 -1 0 0 -1 1 1 -2 -3 -2 1 -3 -1
0 -1 0 -0 -0 -0 -0 1 -1 1 2 -0 2 4 2 -1 3 1 2 0 3 1 -1 0 -1 -0 1 -1 0 -1 -2 -0 -0 0 0 0 -0 -0 -0 -0 -0 -1 0 -1 1 -1 -2 -0 -3
-2 -3 0 -0 0 -1 0 -6 1 -1 1 1 2 1 2 3 2 4 2 1 -0 2 -0 0 0 0 -2 -1 -1 2 -2 -1 -0 -1 2 2 1 -1 -2 -0 1 1 -2 -0 -2 0 -0 -3 -2
-2 -1 0 -0 0 0 0 -2 1 0 1 1 0 1 3 3 2 2 1 3 3 2 -1 -0 -2 -1 -1 1 -2 1 1 -1 -0 -2 -2 0 -2 2 1 -1 -1 1 -2 -1 -2 0 1 -2 -1
-2 0 0 -0 -1 -0 -0 -3 -2 1 0 -1 -1 -1 -1 0 -3 0 2 1 2 2 2 1 2 0 -3 2 2 -1 1 2 1 -1 0 -2 0 -0 -2 1 -0 1 0 0 -2 -2 1 -1 -1
-2 -1 -1 -1 1 1 -1 -0 -3 -2 1 0 1 -0 -1 -3 1 -0 0 2 1 1 -2 2 -1 1 -0 1 -1 1 -0 1 -1 1 -0 -2 0 -1 1 -2 3 0 0 -2 -1 1 1 -3 -2
-0 -0 -1 -0 -0 -1 -1 -5 -3 -0 -2 -0 0 -0 -1 2 3 2 1 1 -1 3 3 1 1 -1 1 -2 -3 -1 -1 -1 -2 3 0 2 -4 -3 -3 0 -1 -1 -1 -2 1 1 0 -0 -2
0 -1 -0 -1 -1 0 0 -3 -1 -1 -1 -1 2 3 4 -1 1 1 -0 1 3 -1 2 1 0 0 -2 2 -2 -2 0 1 -0 -1 -0 -1 1 0 -3 1 1 1 0 -0 -0 -2 -1 -0 -2
1 0 -0 -0 -2 -2 -1 -5 -1 -1 -1 -1 -0 1 2 2 3 6 1 -1 -1 4 3 3 2 1 0 1 1 0 -0 0 -0 -1 -0 1 1 0 -1 -1 -1 -0 -1 -0 0 -0 0 -1 -0
-0 -1 -0 -0 -1 -2 -2 -2 -7 -1 -4 -3 -2 -2 1 1 4 -2 -4 -0 0 2 1 1 0 0 0 0 -0 0 1 0 1 -2 1 -0 1 0 -0 -3 -1 -1 -1 0 -0 -1 -1 -1 -1
-0 -1 -1 -1 -1 -3 -1 -2 -2 -1 -0 -4 -3 -2 -1 -1 1 -0 8 4 5 3 0 1 2 1 1 0 -1 -2 -1 -0 -1 -1 -1 -2 -2 -2 -2 -2 -1 -1 -1 -1 -0 -0 -1 -1 -1
-3 -2 -2 -5 -4 -3 -0 -1 -5 -2 -1 0 -0 -3 -1 -1 1 3 1 -2 -0 -3 -0 1 0 1 2 1 1 1 0 -1 -1 -1 -1 -0 -1 -0 -0 -1 0 -0 -0 -1 1 -0 -1 -1 -0
1 -3 -2 -2 -1 -1 -0 -3 -1 -2 -1 2 4 4 3 -1 1 2 3 5 2 1 1 -1 0 0 0 -0 1 1 1 1 1 0 1 -0 -0 1 0 -0 0 -0 0 1 1 0 0 0 -1
-4 -4 -2 -2 0 0 -2 -5 -2 -4 -4 -4 -1 0 1 0 -0 1 0 2 3 0 1 3 1 0 -0 -0 0 0 0 0 -0 -1 -0 -0 0 0 -1 -0 -1 -0 0 1 -0 0 -1 -0 -1
0 -1 1 0 1 -1 -3 -0 1 -5 -3 -2 -5 -1 2 5 2 -0 2 3 2 5 4 1 -0 0 -1 -2 -1 -1 -1 -1 0 0 -0 -0 -1 -0 -0 0 0 0 -0 1 1 0 -0 -1 -0
-3 -0 -0 1 1 0 -1 3 2 1 1 2 1 3 3 5 4 4 0 -1 1 3 2 3 1 1 0 0 0 -0 -1 -1 -1 -1 -1 -1 -1 -2 -2 -3 -2 -1 -1 -2 -2 -1 -1 -2 -1
-2 0 0 2 0 0 1 6 0 1 1 2 1 2 3 4 -2 3 3 2 -0 1 3 1 -1 1 2 1 -0 0 -0 -0 -1 -1 -0 -1 -2 -1 -2 -1 -1 -1 1 -0 -1 -1 -0 -1 -1
Height
1488 1490 1494 1501 1513 1511 1503 1499 1492 1496 1489 1487 1487 1488 1486 1489 1491 1497 1497 1501 1506 1512 1517 1521 1522 1525 1527 1530 1532 1533 1535 1537 1539 1540 1541 1542 1545 1545 1546 1548 1549 1550 1552 1552 1552 1552 1552 1551 1552
1485 1489 1494 1494 1502 1504 1493 1489 1493 1491 1493 1490 1487 1488 1488 1491 1493 1494 1497 1502 1504 1509 1514 1518 1521 1524 1527 1529 1531 1534 1535 1537 1538 1540 1542 1543 1544 1546 1547 1548 1550 1551 1552 1554 1554 1554 1555 1554 1554
1483 1488 1492 1495 1496 1486 1485 1483 1482 1487 1487 1486 1486 1489 1490 1493 1493 1494 1497 1500 1506 1509 1513 1516 1520 1522 1525 1527 1530 1532 1535 1537 1538 1539 1542 1543 1544 1546 1547 1549 1551 1552 1552 1554 1556 1556 1556 1557 1556
1481 1487 1491 1493 1486 1483 1476 1478 1480 1486 1488 1487 1487 1490 1493 1492 1493 1494 1496 1501 1505 1509 1512 1514 1518 1521 1523 1525 1528 1530 1533 1535 1537 1539 1540 1542 1544 1545 1547 1549 1550 1552 1553 1554 1556 1557 1558 1557 1558
1482 1481 1490 1491 1487 1483 1479 1479 1479 1480 1481 1481 1482 1485 1490 1490 1493 1494 1496 1501 1504 1507 1510 1512 1514 1517 1520 1523 1525 1529 1532 1534 1536 1538 1539 1540 1542 1543 1546 1548 1549 1551 1553 1554 1555 1557 1558 1559 1559
1479 1479 1487 1479 1485 1481 1478 1478 1479 1480 1480 1481 1484 1489 1490 1489 1492 1493 1498 1499 1503 1505 1508 1511 1511 1512 1518 1522 1525 1528 1530 1533 1536 1537 1539 1540 1542 1544 1546 1548 1549 1550 1552 1554 1555 1556 1559 1559 1560
1473 1480 1477 1481 1479 1477 1473 1473 1478 1478 1480 1482 1483 1486 1489 1488 1490 1494 1496 1499 1501 1504 1507 1509 1513 1515 1519 1521 1525 1528 1530 1531 1534 1536 1538 1541 1542 1544 1545 1548 1549 1550 1551 1553 1555 1557 1557 1559 1561
1472 1475 1480 1476 1472 1472 1470 1472 1475 1475 1478 1480 1482 1480 1486 1483 1486 1492 1495 1498 1501 1503 1506 1508 1511 1514 1516 1519 1523 1526 1528 1529 1532 1535 1538 1539 1541 1542 1544 1547 1547 1549 1551 1552 1554 1555 1558 1557 1559
1470 1475 1474 1473 1473 1466 1469 1468 1472 1474 1474 1478 1479 1479 1479 1481 1484 1489 1491 1496 1499 1502 1504 1507 1509 1513 1514 1517 1519 1524 1526 1527 1528 1531 1534 1537 1538 1540 1542 1545 1547 1548 1550 1552 1553 1554 1555 1558 1558
1468 1472 1468 1466 1465 1463 1466 1467 1468 1471 1474 1475 1475 1478 1477 1481 1483 1485 1489 1494 1497 1500 1502 1506 1509 1512 1513 1515 1516 1521 1524 1525 1526 1529 1531 1535 1536 1537 1540 1542 1544 1547 1548 1550 1552 1553 1554 1556 1557
1463 1463 1462 1463 1462 1463 1465 1467 1467 1469 1473 1468 1468 1471 1476 1480 1482 1485 1489 1493 1497 1499 1502 1504 1506 1509 1512 1513 1515 1518 1522 1524 1525 1526 1528 1532 1534 1535 1537 1540 1542 1545 1545 1547 1550 1551 1552 1554 1556
1463 1461 1461 1462 1463 1463 1464 1464 1463 1464 1463 1463 1466 1469 1474 1479 1481 1484 1488 1490 1495 1496 1501 1503 1504 1508 1511 1514 1514 1516 1520 1523 1523 1524 1526 1529 1531 1533 1534 1537 1539 1541 1543 1544 1547 1550 1550 1551 1553
1460 1460 1461 1463 1463 1463 1464 1464 1464 1462 1464 1463 1464 1466 1472 1477 1481 1484 1489 1491 1495 1497 1498 1501 1503 1505 1510 1513 1514 1515 1518 1522 1521 1522 1523 1525 1528 1531 1532 1534 1536 1537 1539 1541 1544 1547 1548 1549 1550
1461 1461 1462 1462 1463 1463 1463 1463 1463 1460 1461 1463 1465 1467 1469 1474 1480 1483 1485 1491 1493 1495 1496 1499 1502 1504 1507 1510 1513 1513 1517 1519 1519 1520 1522 1523 1525 1528 1530 1531 1532 1534 1535 1537 1540 1542 1545 1546 1548
1462 1463 1464 1464 1464 1463 1463 1462 1459 1457 1458 1460 1464 1465 1467 1473 1479 1482 1485 1490 1493 1493 1496 1499 1500 1504 1507 1509 1510 1512 1514 1516 1518 1519 1520 1521 1522 1524 1526 1528 1529 1531 1532 1534 1536 1538 1540 1542 1543
1463 1465 1464 1465 1464 1463 1463 1452 1457 1458 1458 1458 1463 1466 1467 1469 1477 1482 1485 1490 1492 1492 1494 1497 1500 1502 1504 1507 1509 1509 1511 1513 1515 1516 1517 1518 1520 1521 1523 1524 1525 1526 1529 1530 1533 1535 1536 1537 1539
1466 1462 1467 1462 1466 1465 1464 1456 1459 1458 1459 1460 1461 1463 1465 1469 1475 1481 1485 1489 1489 1491 1493 1497 1499 1501 1504 1505 1507 1508 1509 1510 1512 1512 1515 1515 1517 1517 1519 1521 1522 1522 1525 1527 1528 1530 1531 1532 1533
1459 1462 1464 1463 1467 1465 1465 1463 1458 1459 1460 1461 1463 1465 1467 1467 1469 1476 1482 1486 1488 1492 1494 1497 1498 1499 1503 1504 1503 1506 1509 1508 1508 1510 1511 1513 1515 1515 1517 1519 1519 1520 1521 1523 1524 1526 1526 1527 1529
1472 1473 1471 1465 1467 1466 1464 1464 1459 1457 1458 1459 1461 1463 1466 1467 1471 1477 1482 1485 1487 1489 1493 1494 1496 1499 1500 1501 1503 1504 1506 1507 1508 1510 1509 1509 1511 1513 1513 1517 1516 1516 1517 1519 1522 1522 1522 1524 1525
1464 1466 1462 1465 1465 1466 1469 1461 1456 1454 1453 1453 1455 1458 1461 1465 1469 1473 1479 1482 1486 1491 1491 1493 1494 1497 1500 1499 1501 1504 1505 1506 1507 1507 1507 1507 1508 1510 1512 1514 1514 1514 1516 1516 1517 1519 1519 1520 1521
1469 1472 1466 1466 1466 1468 1469 1452 1452 1455 1454 1454 1454 1456 1459 1462 1464 1469 1474 1478 1482 1486 1488 1490 1492 1495 1498 1498 1498 1504 1504 1505 1504 1506 1505 1506 1505 1505 1509 1511 1511 1511 1513 1514 1514 1515 1516 1517 1517
1462 1470 1470 1470 1469 1465 1476 1455 1454 1461 1459 1458 1457 1457 1459 1460 1463 1467 1470 1474 1478 1482 1486 1489 1492 1494 1497 1498 1498 1502 1504 1503 1503 1504 1504 1505 1503 1504 1506 1507 1508 1509 1511 1511 1511 1512 1513 1513 1516
1467 1470 1471 1478 1482 1483 1475 1473 1457 1463 1461 1459 1460 1459 1458 1457 1459 1462 1467 1471 1476 1482 1484 1488 1491 1494 1496 1496 1497 1500 1501 1501 1500 1501 1502 1502 1501 1501 1502 1504 1507 1507 1509 1509 1509 1510 1510 1511 1513
1471 1473 1476 1483 1488 1489 1482 1478 1468 1474 1477 1466 1461 1458 1454 1452 1453 1458 1465 1470 1475 1480 1484 1487 1490 1492 1494 1494 1496 1498 1499 1499 1498 1499 1499 1499 1499 1499 1500 1503 1504 1504 1505 1506 1507 1507 1507 1508 1509
1473 1473 1471 1479 1485 1471 1493 1484 1483 1484 1478 1474 1466 1458 1452 1448 1448 1453 1458 1465 1473 1478 1482 1485 1488 1491 1492 1493 1496 1497 1498 1498 1498 1498 1499 1498 1499 1499 1499 1500 1500 1501 1502 1502 1503 1502 1504 1505 1506
1484 1483 1468 1479 1487 1469 1488 1485 1482 1481 1477 1472 1467 1460 1454 1450 1450 1453 1459 1465 1471 1476 1481 1485 1488 1490 1492 1494 1495 1496 1496 1497 1497 1497 1497 1496 1497 1497 1496 1497 1498 1498 1499 1499 1499 1499 1500 1501 1502
1486 1489 1492 1487 1509 1483 1491 1485 1478 1477 1474 1471 1466 1461 1457 1454 1454 1457 1460 1466 1471 1477 1481 1484 1487 1489 1491 1493 1494 1494 1494 1495 1495 1495 1495 1495 1494 1493 1493 1494 1494 1495 1496 1495 1495 1495 1496 1497 1498
1481 1489 1476 1478 1468 1492 1494 1499 1484 1485 1480 1475 1470 1467 1463 1461 1459 1460 1462 1466 1472 1477 1481 1484 1485 1487 1489 1490 1491 1492 1493 1493 1493 1493 1492 1491 1491 1490 1490 1490 1491 1491 1491 1491 1490 1491 1491 1492 1493
1491 1486 1488 1487 1480 1468 1471 1485 1494 1490 1486 1482 1477 1472 1468 1465 1465 1466 1467 1470 1474 1478 1480 1482 1484 1485 1486 1488 1489 1489 1490 1490 1490 1490 1489 1488 1487 1487 1486 1486 1487 1487 1487 1486 1486 1486 1486 1487 1487
1493 1488 1483 1474 1475 1482 1478 1487 1495 1492 1489 1484 1479 1475 1472 1471 1469 1469 1470 1472 1475 1477 1479 1481 1482 1482 1484 1484 1485 1486 1487 1487 1487 1487 1486 1485 1484 1484 1483 1484 1483 1483 1482 1482 1481 1481 1481 1481 1481